Location: Moscow
(38.3171°N, 79.0889°W)
Time: 01:56:32
(UTC+00:00)

COSMO-SKYMED 1 - Pass Details

Date: 07 November 2025
Orbit: 579 x 581 km, 97.9° (Epoch: 08 December)

Event Time Altitude Azimuth Distance (km) Brightness Sun altitude
Rises 22:51:53 0° 25° (NNE) 2,806 5.6 -8.6°
Reaches altitude 10° 22:54:19 10° 37° (NE) 1,901 4.6 -9.1°
Maximum altitude 22:57:50 27° 96° (E) 1,128 3.4 -9.8°
Drops below altitude 10° 23:01:20 10° 155° (SSE) 1,887 4.9 -10.4°
Sets 23:03:43 0° 168° (SSE) 2,781 5.9 -10.9°
